| time (UTC) | temp F | wind direction | speed MPH | gust MPH | rain 1hr in | rain 24hr in | rain mn in | humidity % | barometer mb |
| 20260506111512 | 65 | 99 | 0.0 | 6.0 | 0.00 | 0.16 | 0.00 | 63 | 1006.7 |
| 20260506110014 | 63 | 238 | 2.0 | 8.0 | 0.00 | 0.16 | 0.00 | 72 | 1006.9 |
| 20260506104505 | 62 | 223 | 0.0 | 5.0 | 0.00 | 0.16 | 0.00 | 72 | 1007.1 |
| 20260506103015 | 62 | 257 | 0.0 | 3.0 | 0.00 | 0.16 | 0.00 | 73 | 1007.1 |
| 20260506101504 | 62 | 227 | 1.0 | 5.0 | 0.00 | 0.16 | 0.00 | 73 | 1007.2 |
| 20260506100001 | 61 | 259 | 0.0 | 3.0 | 0.00 | 0.16 | 0.00 | 76 | 1007.1 |
| 20260506094559 | 61 | 290 | 0.0 | 5.0 | 0.00 | 0.16 | 0.00 | 76 | 1007.1 |
| 20260506093100 | 61 | 246 | 0.0 | 5.0 | 0.00 | 0.16 | 0.00 | 77 | 1007.3 |
| 20260506091555 | 60 | 186 | 0.0 | 3.0 | 0.00 | 0.16 | 0.00 | 80 | 1007.3 |
| 20260506090053 | 59 | 273 | 0.0 | 0.0 | 0.00 | 0.16 | 0.00 | 83 | 1007.2 |
| 20260506084551 | 59 | 217 | 0.0 | 3.0 | 0.00 | 0.16 | 0.00 | 83 | 1007.3 |
| 20260506083109 | 59 | 178 | 0.0 | 3.0 | 0.00 | 0.16 | 0.00 | 82 | 1007.5 |
| 20260506081551 | 59 | 261 | 1.0 | 6.0 | 0.00 | 0.16 | 0.00 | 85 | 1007.5 |
| 20260506073042 | 57 | 173 | 0.0 | 2.0 | 0.00 | 0.16 | 0.00 | 90 | 1007.1 |
| 20260506071538 | 55 | 223 | 0.0 | 2.0 | 0.00 | 0.16 | 0.00 | 91 | 1007.1 |
| 20260506061535 | 52 | 167 | 0.0 | 0.0 | 0.00 | 0.16 | 0.00 | 92 | 1007.2 |
| 20260506044517 | 48 | 242 | 0.0 | 0.0 | 0.00 | 0.16 | 0.00 | 92 | 1007.8 |
| 20260506043014 | 48 | 242 | 0.0 | 0.0 | 0.00 | 0.16 | 0.00 | 92 | 1007.8 |
| 20260506041511 | 48 | 242 | 0.0 | 0.0 | 0.00 | 0.16 | 0.00 | 92 | 1007.7 |
| 20260506040008 | 48 | 242 | 0.0 | 0.0 | 0.00 | 0.16 | 0.00 | 92 | 1007.5 |
| 20260506034508 | 48 | 242 | 0.0 | 0.0 | 0.00 | 0.16 | 0.00 | 92 | 1007.5 |
| 20260506033013 | 49 | 242 | 0.0 | 0.0 | 0.00 | 0.16 | 0.00 | 92 | 1007.3 |
| 20260506031506 | 49 | 242 | 0.0 | 0.0 | 0.00 | 0.16 | 0.00 | 92 | 1007.2 |
| 20260506030002 | 50 | 242 | 0.0 | 0.0 | 0.00 | 0.16 | 0.00 | 92 | 1007.4 |
| 20260506024606 | 50 | 242 | 0.0 | 0.0 | 0.00 | 0.16 | 0.00 | 92 | 1007.5 |
| 20260506023059 | 50 | 264 | 0.0 | 0.0 | 0.00 | 0.16 | 0.00 | 92 | 1007.6 |
| 20260506021559 | 50 | 264 | 0.0 | 0.0 | 0.00 | 0.16 | 0.00 | 92 | 1007.5 |
| 20260506020110 | 51 | 264 | 0.0 | 0.0 | 0.00 | 0.16 | 0.00 | 92 | 1007.5 |
| 20260506014611 | 51 | 264 | 0.0 | 0.0 | 0.00 | 0.16 | 0.00 | 92 | 1007.4 |
| 20260506013056 | 51 | 265 | 0.0 | 0.0 | 0.00 | 0.16 | 0.00 | 92 | 1007.6 |
| 20260506011619 | 50 | 263 | 0.0 | 0.0 | 0.00 | 0.16 | 0.00 | 92 | 1007.6 |
| 20260506010053 | 51 | 266 | 0.0 | 0.0 | 0.00 | 0.16 | 0.00 | 92 | 1007.7 |
| 20260506004603 | 51 | 246 | 0.0 | 0.0 | 0.00 | 0.17 | 0.00 | 92 | 1007.6 |
| 20260506003052 | 51 | 194 | 0.0 | 0.0 | 0.00 | 0.17 | 0.00 | 91 | 1007.7 |
| 20260506001550 | 51 | 193 | 0.0 | 0.0 | 0.00 | 0.17 | 0.00 | 92 | 1007.8 |
| 20260506000113 | 51 | 187 | 0.0 | 0.0 | 0.00 | 0.17 | 0.00 | 91 | 1007.9 |
| 20260505234551 | 52 | 205 | 0.0 | 0.0 | 0.00 | 0.17 | 0.00 | 91 | 1008.0 |
| 20260505233044 | 52 | 197 | 0.0 | 0.0 | 0.00 | 0.17 | 0.00 | 92 | 1008.1 |
| 20260505231546 | 52 | 199 | 0.0 | 0.0 | 0.00 | 0.17 | 0.00 | 92 | 1008.2 |
| 20260505230100 | 52 | 244 | 0.0 | 0.0 | 0.00 | 0.17 | 0.00 | 91 | 1008.2 |
| 20260505224543 | 52 | 249 | 0.0 | 0.0 | 0.00 | 0.17 | 0.00 | 91 | 1008.3 |
| 20260505223040 | 53 | 229 | 0.0 | 0.0 | 0.00 | 0.17 | 0.00 | 91 | 1008.3 |
| 20260505221539 | 53 | 204 | 0.0 | 0.0 | 0.00 | 0.17 | 0.00 | 91 | 1008.2 |
| 20260505220039 | 53 | 240 | 0.0 | 0.0 | 0.00 | 0.17 | 0.00 | 91 | 1008.2 |
| 20260505214535 | 53 | 234 | 0.0 | 0.0 | 0.00 | 0.17 | 0.17 | 91 | 1008.1 |
| 20260505213037 | 53 | 234 | 0.0 | 0.0 | 0.00 | 0.17 | 0.17 | 91 | 1008.0 |
| 20260505211540 | 53 | 234 | 0.0 | 0.0 | 0.00 | 0.17 | 0.17 | 91 | 1008.0 |
| 20260505210033 | 54 | 209 | 0.0 | 0.0 | 0.00 | 0.17 | 0.17 | 91 | 1008.0 |
| 20260505204544 | 54 | 270 | 0.0 | 0.0 | 0.00 | 0.17 | 0.17 | 91 | 1007.8 |
| 20260505203037 | 54 | 246 | 0.0 | 0.0 | 0.00 | 0.17 | 0.17 | 91 | 1007.7 |
| 20260505201532 | 55 | 251 | 0.0 | 0.0 | 0.00 | 0.17 | 0.17 | 91 | 1007.5 |
| 20260505200032 | 55 | 248 | 0.0 | 0.0 | 0.00 | 0.17 | 0.17 | 90 | 1007.5 |
| 20260505194539 | 56 | 248 | 0.0 | 0.0 | 0.00 | 0.17 | 0.17 | 91 | 1007.6 |
| 20260505193029 | 55 | 253 | 0.0 | 0.0 | 0.00 | 0.17 | 0.17 | 90 | 1007.6 |
| 20260505191528 | 56 | 317 | 0.0 | 0.0 | 0.00 | 0.17 | 0.17 | 90 | 1007.3 |
| 20260505190026 | 56 | 294 | 0.0 | 0.0 | 0.00 | 0.17 | 0.17 | 90 | 1007.1 |
| 20260505184528 | 56 | 292 | 0.0 | 0.0 | 0.00 | 0.17 | 0.17 | 90 | 1007.1 |
| 20260505183022 | 56 | 280 | 0.0 | 0.0 | 0.00 | 0.17 | 0.17 | 90 | 1007.0 |
| 20260505181522 | 56 | 325 | 0.0 | 0.0 | 0.01 | 0.17 | 0.17 | 90 | 1006.8 |
| 20260505180025 | 56 | 246 | 0.0 | 0.0 | 0.01 | 0.17 | 0.17 | 89 | 1006.9 |
| 20260505174521 | 56 | 240 | 0.0 | 0.0 | 0.02 | 0.17 | 0.17 | 89 | 1006.6 |
| 20260505173022 | 57 | 284 | 0.0 | 0.0 | 0.02 | 0.17 | 0.17 | 89 | 1006.6 |
| 20260505171520 | 57 | 283 | 0.0 | 0.0 | 0.02 | 0.16 | 0.16 | 89 | 1006.7 |
| 20260505170021 | 57 | 275 | 0.0 | 0.0 | 0.04 | 0.16 | 0.16 | 89 | 1006.5 |
| 20260505164517 | 57 | 274 | 1.0 | 10.0 | 0.07 | 0.15 | 0.15 | 88 | 1006.4 |
| 20260505163017 | 58 | 267 | 2.0 | 9.0 | 0.13 | 0.14 | 0.14 | 88 | 1006.6 |
| 20260505161517 | 58 | 253 | 2.0 | 12.0 | 0.13 | 0.13 | 0.13 | 86 | 1006.8 |
| 20260505153015 | 71 | 262 | 7.0 | 22.0 | 0.00 | 0.01 | 0.01 | 52 | 1005.8 |
| 20260505151515 | 73 | 288 | 0.0 | 0.0 | 0.00 | 0.01 | 0.01 | 48 | 1005.0 |
| 20260505124601 | 72 | 341 | 0.0 | 0.0 | 0.00 | 0.01 | 0.01 | 47 | 1006.1 |
| 20260505123103 | 73 | 59 | 0.0 | 1.0 | 0.00 | 0.01 | 0.01 | 46 | 1006.1 |
| 20260505121624 | 74 | 309 | 0.0 | 6.0 | 0.00 | 0.01 | 0.01 | 46 | 1006.3 |
| 20260505120055 | 76 | 232 | 0.0 | 9.0 | 0.00 | 0.01 | 0.01 | 44 | 1006.4 |
| 20260505114555 | 76 | 328 | 2.0 | 8.0 | 0.00 | 0.01 | 0.01 | 43 | 1006.5 |
| 20260505113058 | 74 | 280 | 0.0 | 0.0 | 0.00 | 0.01 | 0.01 | 42 | 1006.5 |